Burlington, WA
on Thursday, November 15, 2012

Thursday
Previous Day Next Day
Daily Summary
 ActualAverage (KBLI)Record (KBLI)
Temperature
Mean Temperature °F 43°F  
Max Temperature 46°F 50°F 65°F (2004)
Min Temperature 35°F 37°F 3°F (1955)
Degree Days
Heating Degree Days 24 22  
Month to date heating degree days 301  
Cooling Degree Days 0 0  
Month to date cooling degree days 0  
Year to date cooling degree days 42  
Moisture
Dew Point 40°F   
Average Humidity 100    
Maximum Humidity 100    
Minimum Humidity 93    
Precipitation
Precipitation 0.00 in 0.21 in 0.87 in (2013)
Month to date precipitation 2.94  
Year to date precipitation 28.75  
Wind
Wind Speed 4 mph   
Max Wind Speed 12 mph   
Max Gust Speed mph   
Visibility 4 miles   
Events     

Key: T is trace of precipitation, MM is missing value
Source: NWS Daily Summary
Time(PST)TemperatureDew PointHumidity Pressure Visibility Wind DirectionWind SpeedGust SpeedPrecipitationEvents Conditions
12:15 AM 42.8°F 42.8°F 100% 30.31 in 0.2 miles Calm Calm - 0.00 in   Overcast
12:35 AM 42.8°F 42.8°F 100% 30.30 in 0.2 miles Calm Calm - 0.00 in   Overcast
12:55 AM 42.8°F 42.8°F 100% 30.29 in 0.2 miles NNW 3.5 mph - 0.00 in   Overcast
1:15 AM 39.2°F 39.2°F 100% 30.28 in 0.2 miles NW 4.6 mph - 0.00 in   Overcast
1:35 AM 39.2°F 39.2°F 100% 30.28 in 0.2 miles Calm Calm - 0.00 in   Overcast
1:55 AM 39.2°F 39.2°F 100% 30.28 in 2.5 miles North 5.8 mph - 0.00 in   Scattered Clouds
2:15 AM 39.2°F 39.2°F 100% 30.27 in 9.0 miles NNE 4.6 mph - 0.00 in   Clear
2:35 AM 39.2°F 39.2°F 100% 30.27 in 10.0 miles NNE 5.8 mph - 0.00 in   Clear
2:55 AM 39.2°F 39.2°F 100% 30.26 in 10.0 miles NNE 6.9 mph - 0.00 in   Clear
3:15 AM 39.2°F 39.2°F 100% 30.25 in 10.0 miles NNE 5.8 mph - 0.00 in   Clear
3:35 AM 39.2°F 39.2°F 100% 30.25 in 10.0 miles North 3.5 mph - 0.00 in   Clear
3:55 AM 35.6°F 35.6°F 100% 30.24 in 10.0 miles NW 5.8 mph - 0.00 in   Clear
4:15 AM 35.6°F 35.6°F 100% 30.24 in 8.0 miles NW 5.8 mph - 0.00 in   Clear
4:35 AM 35.6°F 35.6°F 100% 30.23 in 4.0 miles NW 8.1 mph - 0.00 in   Clear
4:55 AM 37.4°F 37.4°F 100% 30.23 in 0.2 miles NW 5.8 mph - 0.00 in   Overcast
5:15 AM 37.4°F 37.4°F 100% 30.22 in 0.2 miles NW 4.6 mph - 0.00 in   Overcast
5:35 AM 37.4°F 37.4°F 100% 30.21 in 0.2 miles NNW 3.5 mph - 0.00 in   Overcast
5:55 AM 37.4°F 37.4°F 100% 30.21 in 0.2 miles Calm Calm - 0.00 in   Overcast
6:15 AM 39.2°F 39.2°F 100% 30.20 in 0.2 miles Calm Calm - 0.00 in   Overcast
6:35 AM 39.2°F 39.2°F 100% 30.20 in 0.2 miles NW 3.5 mph - 0.00 in   Overcast
6:55 AM 39.2°F 39.2°F 100% 30.19 in 0.2 miles NW 5.8 mph - 0.00 in   Overcast
7:15 AM 39.2°F 39.2°F 100% 30.19 in 0.2 miles NW 5.8 mph - 0.00 in   Overcast
7:35 AM 37.4°F 37.4°F 100% 30.19 in 0.2 miles NW 5.8 mph - 0.00 in   Overcast
7:55 AM 37.4°F 37.4°F 100% 30.19 in 0.2 miles NE 4.6 mph - 0.00 in   Overcast
8:15 AM 39.2°F 39.2°F 100% 30.18 in 8.0 miles North 3.5 mph - 0.00 in   Scattered Clouds
8:35 AM 39.2°F 39.2°F 100% 30.18 in 5.0 miles Calm Calm - 0.00 in   Clear
9:15 AM 39.2°F 39.2°F 100% 30.16 in 10.0 miles NE 8.1 mph - 0.00 in   Clear
9:35 AM 39.2°F 39.2°F 100% 30.16 in 10.0 miles NE 6.9 mph - 0.00 in   Clear
9:55 AM 41.0°F 41.0°F 100% 30.14 in 10.0 miles NNE 4.6 mph - 0.00 in   Clear
10:15 AM 42.8°F 42.8°F 100% 30.13 in 9.0 miles NE 6.9 mph - 0.00 in   Clear
10:35 AM 44.6°F 44.6°F 100% 30.12 in 10.0 miles NNE 6.9 mph - 0.00 in   Clear
10:55 AM 44.6°F 44.6°F 100% 30.12 in 10.0 miles NNW 8.1 mph - 0.00 in   Clear
11:15 AM 44.6°F 44.6°F 100% 30.11 in 9.0 miles North 6.9 mph - 0.00 in   Partly Cloudy
11:35 AM 42.8°F 42.8°F 100% 30.10 in 6.0 miles NNW 8.1 mph - 0.00 in   Mostly Cloudy
11:55 AM 42.8°F 42.8°F 100% 30.08 in 5.0 miles NNW 6.9 mph - 0.00 in   Overcast
12:15 PM 42.8°F 42.8°F 100% 30.07 in 6.0 miles NW 8.1 mph - 0.00 in   Overcast
12:35 PM 42.8°F 42.8°F 100% 30.06 in 2.0 miles NW 11.5 mph - 0.00 in   Overcast
1:15 PM 42.8°F 42.8°F 100% 30.05 in 2.0 miles NW 9.2 mph - 0.00 in   Overcast
1:35 PM 42.8°F 42.8°F 100% 30.04 in 4.0 miles WNW 11.5 mph - 0.00 in   Overcast
1:55 PM 44.6°F 44.6°F 100% 30.04 in 8.0 miles NW 11.5 mph - 0.00 in   Mostly Cloudy
2:15 PM 44.6°F 44.6°F 100% 30.03 in 9.0 miles NW 10.4 mph - 0.00 in   Clear
2:35 PM 46.4°F 44.6°F 93% 30.03 in 10.0 miles NW 9.2 mph - 0.00 in   Clear
2:55 PM 46.4°F 44.6°F 93% 30.03 in 5.0 miles WNW 5.8 mph - 0.00 in   Clear
3:15 PM 46.4°F 44.6°F 93% 30.03 in 8.0 miles WNW 8.1 mph - 0.00 in   Clear
3:35 PM 44.6°F 44.6°F 100% 30.03 in 7.0 miles WNW 5.8 mph - 0.00 in   Scattered Clouds
4:15 PM 42.8°F 42.8°F 100% 30.01 in 8.0 miles Calm Calm - 0.00 in   Clear
4:35 PM 42.8°F 42.8°F 100% 30.01 in 5.0 miles Calm Calm - 0.00 in   Partly Cloudy
5:15 PM 41.0°F 41.0°F 100% 30.00 in 3.0 miles Calm Calm - 0.00 in   Clear
5:35 PM 39.2°F 39.2°F 100% 30.00 in 0.8 miles Calm Calm - 0.00 in   Unknown
6:15 PM 37.4°F 37.4°F 100% 29.99 in 0.2 miles Calm Calm - 0.00 in   Overcast
6:35 PM 39.2°F 39.2°F 100% 29.99 in 0.5 miles Calm Calm - 0.00 in   Mostly Cloudy
6:55 PM 39.2°F 39.2°F 100% 29.99 in 0.8 miles Calm Calm - 0.00 in   Overcast
7:15 PM 39.2°F 39.2°F 100% 29.98 in 6.0 miles Calm Calm - 0.00 in   Mostly Cloudy
7:35 PM 39.2°F 39.2°F 100% 29.98 in 1.5 miles Calm Calm - 0.00 in   Mostly Cloudy
7:55 PM 39.2°F 39.2°F 100% 29.99 in 0.2 miles Calm Calm - 0.00 in   Overcast
8:15 PM 39.2°F 39.2°F 100% 29.98 in 3.0 miles Calm Calm - 0.00 in   Overcast
8:35 PM 39.2°F 39.2°F 100% 29.98 in 3.0 miles Calm Calm - 0.00 in   Overcast
8:55 PM 39.2°F 39.2°F 100% 29.97 in 5.0 miles NE 4.6 mph - 0.00 in   Overcast
9:15 PM 39.2°F 39.2°F 100% 29.98 in 3.0 miles NE 4.6 mph - 0.00 in   Overcast
9:35 PM 41.0°F 41.0°F 100% 29.97 in 0.5 miles NE 3.5 mph - 0.00 in   Overcast
9:55 PM 39.2°F 39.2°F 100% 29.97 in 0.2 miles Calm Calm - 0.00 in   Overcast
10:15 PM 39.2°F 39.2°F 100% 29.96 in 0.2 miles Calm Calm - 0.00 in   Overcast
10:35 PM 39.2°F 39.2°F 100% 29.96 in 0.2 miles Calm Calm - 0.00 in   Overcast
11:15 PM 39.2°F 39.2°F 100% 29.96 in 0.2 miles NNW 3.5 mph - 0.00 in   Overcast
11:35 PM 39.2°F 39.2°F 100% 29.95 in 0.2 miles Calm Calm - 0.00 in   Overcast
11:55 PM 39.2°F 39.2°F 100% 29.95 in 0.2 miles Calm Calm - 0.00 in   Overcast
Moon Phase
Nov. 15 Nov. 20 Nov. 28 Dec. 06 Dec. 13
Sunrise:07:18 AM (PST) Moon Rise:09:25 AM (PST)11/15
Sunset:04:29 PM (PST) Moon Set:06:21 PM (PST)11/15

Copyright © 2014 The Weather Underground, Inc.